Location: Waldport
(44.4270°N, 124.0680°W)
Time: 12:55:11
(UTC-07:00)

Daily predictions for brighter satellites

Satellite Brightness Start Highest point End
(mag) Time Altitude Azimuth Time Altitude Azimuth Time Altitude Azimuth
Cosmos 724 4.5 21:34:10 10° NNW 21:40:12 76° NE 21:46:20 10° SE
ERS-2 2.8 21:37:53 10° S 21:41:29 54° WSW 21:45:06 10° NNW
Resurs 01 Rocket 2.7 21:40:13 10° S 21:44:26 44° W 21:48:42 10° NNW
Cosmos 921 Rocket 3.3 21:41:04 10° N 21:45:31 57° ENE 21:49:57 10° SSE
Terra 3.9 21:43:09 10° E 21:45:40 14° ENE 21:48:11 10° NNE
OAO 3 Rocket 4.4 21:44:48 10° WSW 21:48:57 27° S 21:53:05 10° SE
Cosmos 1048 Rocket 4.4 21:45:13 10° SSW 21:50:31 74° WNW 21:55:56 10° NNE
USA 215 3.7 21:46:58 10° SSE 21:53:23 57° SW 21:59:51 10° NW
Cosmos 1825 Rocket 4.1 21:49:46 10° SSW 21:54:12 64° W 21:58:38 10° N
Cosmos 1315 Rocket 3.3 21:52:12 10° SSW 21:56:15 66° WNW 22:00:22 10° N
SL-8 R/B 3.7 21:52:28 10° SW 21:57:15 68° SSE 22:02:04 10° ENE
CENTAUR R/B 4.3 21:50:58 10° NNW 21:57:46 33° NNE 22:05:07 10° E
Cosmos 1461 4.4 21:54:16 10° SSE 21:57:47 22° ESE 22:01:24 10° ENE
NOSS 3-4 (A) 4.4 21:57:13 10° SSE 22:02:14 27° ESE 22:07:23 10° ENE
NOSS 3-4 (C) 4.4 21:57:21 10° SSE 22:02:19 26° ESE 22:07:27 10° ENE
ARGOS 3.3 22:00:24 10° SSE 22:05:50 83° WSW 22:11:18 10° NNW
Cosmos 2278 Rocket 3.1 22:01:46 10° SSE 22:06:32 29° ESE 22:11:20 10° NE
MetOp-A 4.3 22:06:22 10° S 22:11:44 77° WSW 22:17:07 10° NNW
APEX 3.6 22:09:11 10° NNW 22:12:09 40° ENE 22:14:55 15° SE
Cosmos 220 Rocket 4.4 22:08:43 10° S 22:12:39 39° ESE 22:16:35 10° NE
KORONAS-FOTON 3.8 22:16:02 10° S 22:19:54 69° E 22:23:50 10° NNE
SL-08 RB Rocket 4.0 22:17:47 10° S 22:22:26 71° WSW 22:27:07 10° NNW
Cosmos 1844 Rocket 3.0 22:17:06 10° SSW 22:22:45 73° WNW 22:28:25 10° NNE
SL-14 R/B 4.2 22:20:17 16° SE 22:22:47 31° E 22:26:17 10° NNE
Cosmos 1745 Rocket 4.2 22:16:58 10° N 22:23:14 62° ENE 22:28:39 14° SSE
COSMOS 2406 3.3 22:17:44 10° NNW 22:23:33 85° WSW 22:28:30 14° SSE
Cosmos 1346 Rocket 3.9 22:21:46 10° NNW 22:25:36 43° W 22:29:27 10° SSW
SL-08 R/B 4.5 22:20:09 10° N 22:26:21 81° E 22:32:11 12° S
Cosmos 1238 Rocket 4.1 22:24:34 10° SW 22:27:11 29° WNW 22:29:58 10° NNW
SPOT 5 3.2 22:24:53 15° SSE 22:29:08 65° ENE 22:34:25 10° N
Cosmos 1110 Rocket 4.4 22:24:13 10° NNW 22:29:19 61° WSW 22:34:03 12° S
Cosmos 1844 3.8 22:23:49 10° SSW 22:29:32 82° WNW 22:35:21 10° NNE
Cosmos-2242 4.1 22:25:52 10° NNW 22:30:03 44° W 22:34:14 10° SSW
Lacrosse 5 3.3 22:30:47 10° WSW 22:35:35 42° NNW 22:40:25 10° NE
ATLAS 5 CENTAUR R/B 2.5 22:37:13 18° SSE 22:39:40 29° ESE 22:43:47 10° NE
Cosmos 1626 3.4 22:40:50 21° ESE 22:42:09 26° E 22:45:17 10° NNE
ATLAS 3B R/B 2.7 22:35:47 10° NW 22:42:25 75° WSW 22:47:22 18° SSE
Helios 1B rocket 2.8 22:40:06 10° NNE 22:44:02 44° E 22:46:23 21° SSE
Helios 1A 2.9 22:41:42 19° SSE 22:44:37 85° E 22:48:52 10° NNW
Cosmos 1908 4.4 22:41:13 10° NNW 22:44:50 39° W 22:48:28 10° SSW
SPOT 1/Viking Rocket 3.5 22:41:25 17° SSE 22:45:23 87° ENE 22:50:34 10° NNW
H-2A R/B 3.0 22:40:28 10° S 22:45:32 46° W 22:50:45 10° NNW
USA 238 DEB 4.2 22:39:57 10° NW 22:46:54 56° WSW 22:52:33 17° SSE
USA 238 4.2 22:40:03 10° NW 22:47:00 56° WSW 22:52:38 17° SSE
Cosmos 1340 3.2 22:45:45 10° NNW 22:49:28 56° W 22:52:11 17° S
Cosmos 1842 Rocket 3.6 22:46:02 10° NNW 22:50:23 75° W 22:53:33 18° S
S3M 4.2 22:45:54 10° S 22:52:16 81° W 22:58:42 10° N
Cosmos 2082 Rocket 3.0 22:47:27 10° NNW 22:52:52 41° ENE 22:56:41 18° ESE
Cosmos 1833 Rocket 3.3 22:47:56 10° NNW 22:53:20 45° ENE 22:57:01 19° ESE
Cosmos 1709 Rocket 4.2 22:50:22 10° N 22:56:29 56° ENE 23:00:24 22° SSE
NOSS 2-2 (C) 3.9 22:55:16 26° SSE 22:56:41 35° ESE 23:00:34 10° NE
ATLAS 3B CENTAUR R/B 4.3 22:44:05 10° SW 22:57:21 26° S 23:01:25 20° SE
NOSS 3-2 (A) 4.1 22:50:59 10° NW 22:58:31 73° WSW 23:04:29 21° SSE
CZ-2C R/B 3.4 22:55:26 10° NNE 23:00:18 33° E 23:02:37 24° SE
Landsat 7 3.9 23:00:13 21° S 23:03:21 77° WSW 23:08:09 10° NNW
Spot 1 4.2 23:02:42 27° SSE 23:05:06 74° ENE 23:09:45 10° N
Cosmos 1455 3.7 23:04:47 10° NNE 23:07:54 24° ENE 23:09:00 21° E
Cosmos 1300 2.9 23:05:41 10° NNW 23:09:29 66° W 23:11:27 27° S
ERS-1 Rocket 4.3 23:06:45 11° SSW 23:11:06 34° W 23:15:42 10° NNW
Cosmos 1726 4.1 23:10:21 10° NW 23:13:28 25° W 23:16:22 11° SW
ATLAS 2AS CENTAUR R/B 4.1 23:08:06 10° WSW 23:15:43 48° NW 23:23:33 10° NNE
Aureole 3 Rocket 4.2 23:11:17 21° SSE 23:16:22 61° E 23:21:44 10° NNE
RESURS DK-1 3.0 23:17:45 33° SE 23:18:29 36° ESE 23:22:18 10° NE
Cosmos 2221 2.7 23:15:25 10° NNW 23:19:44 68° W 23:21:54 28° S
Meteor 1-29 2.8 23:18:30 10° NNE 23:21:55 85° W 23:23:09 36° SSW
Terra 1.9 23:20:16 28° S 23:22:48 76° WSW 23:27:35 10° NNW
Okean 3 Rocket 3.5 23:21:36 33° SSE 23:23:27 67° E 23:27:50 10° NNE
NOSS 3-2 (C) 4.2 23:16:58 10° NW 23:24:30 69° WSW 23:29:39 25° SSE
Cosmos 2251 Rocket 4.3 23:19:38 10° SW 23:24:51 54° WNW 23:30:05 10° NNE
Cosmos 1992 Rocket 4.0 23:21:16 10° NNW 23:26:30 76° ENE 23:28:59 32° SSE
COBE Rocket 4.4 23:28:22 10° NNE 23:33:17 46° E 23:35:05 33° SE
Cosmos 1328 3.7 23:32:34 35° SSW 23:34:10 81° W 23:38:08 10° N
Cosmos 2315 Rocket 4.0 23:31:49 22° S 23:36:09 87° W 23:42:34 10° N
Cosmos 1461 4.0 23:32:02 10° SW 23:36:36 52° NW 23:41:18 10° NNE
SL-8 R/B 4.4 23:35:11 10° W 23:39:57 57° N 23:44:44 10° ENE
ADEOS Rocket 4.2 23:38:32 10° NE 23:43:38 27° E 23:45:36 23° ESE
CZ-2C R/B 3.6 23:41:41 27° S 23:44:54 62° W 23:50:36 10° NNW
Meteor 1-11 4.2 23:45:27 30° S 23:48:24 80° E 23:54:13 10° NNE
Cosmos 1441 Rocket 3.6 23:45:31 10° N 23:49:12 46° ENE 23:49:46 42° ESE
CENTAUR R/B 3.1 23:41:28 10° NW 23:49:26 88° WSW 23:54:31 28° SSE
NOSS 2-2 (E) 3.9 23:46:19 12° SW 23:49:54 61° NW 23:54:27 10° NNE
Cosmos 2278 Rocket 3.2 23:44:56 10° SW 23:50:23 46° WNW 23:55:51 10° NNE
Cosmos 2184 Rocket 4.2 23:44:08 10° N 23:50:23 59° ENE 23:53:16 32° SE
NOSS 3-4 (A) 4.0 23:46:30 10° SW 23:52:37 61° NW 23:59:04 10° NNE
NOSS 3-4 (C) 3.9 23:46:35 10° SW 23:52:41 62° NW 23:59:09 10° NNE
Spot 4 3.8 23:51:21 40° SSE 23:53:08 83° ENE 23:58:01 10° NNW
